UTA7775 USDD-USRO

Flight info

Callsign UTA7775
Flight time N/A
Altitude 23000
Route ABIMA1N ABIMA G719 GIMIR W255 BETIL BETIL1J
Aircraft AT76/M-SDFGIRY/S

Departure

Time 2026-04-23 13:50
Airport Salekhard Airport (USDD)

Arrival

Time N/A
Airport Noyabrsk Airport (USRO)
Time Latitude Longitude Altitude Speed Heading
2026-04-23 13:21 66.59186 66.58997 207 ft 0 kts 47°
2026-04-23 13:34 66.59190 66.59004 212 ft 1 kts 31°
2026-04-23 13:34 66.59193 66.59000 207 ft 0 kts 351°
2026-04-23 13:34 66.59214 66.58916 213 ft 7 kts 262°
2026-04-23 13:34 66.59184 66.58874 213 ft 6 kts 172°
2026-04-23 13:35 66.59162 66.58921 211 ft 12 kts 132°
2026-04-23 13:35 66.59039 66.59275 212 ft 31 kts 134°
2026-04-23 13:35 66.58898 66.59452 212 ft 16 kts 204°
2026-04-23 13:35 66.58815 66.59110 214 ft 23 kts 240°
2026-04-23 13:36 66.58800 66.59053 212 ft 9 kts 223°
2026-04-23 13:36 66.58694 66.59035 216 ft 13 kts 169°
2026-04-23 13:36 66.58638 66.59060 213 ft 3 kts 137°
2026-04-23 13:36 66.58642 66.59155 217 ft 5 kts 45°
2026-04-23 13:37 66.58661 66.59220 209 ft 0 kts 64°
2026-04-23 13:49 66.58666 66.59247 209 ft 16 kts 63°
2026-04-23 13:50 66.58837 66.60044 206 ft 88 kts 62°
2026-04-23 13:50 66.59238 66.61824 320 ft 140 kts 59°
2026-04-23 13:50 66.59872 66.64044 725 ft 166 kts 52°
2026-04-23 13:50 66.60648 66.66374 1310 ft 173 kts 54°
2026-04-23 13:51 66.60919 66.69209 2051 ft 172 kts 104°
2026-04-23 13:51 66.60216 66.71510 2805 ft 172 kts 154°
2026-04-23 13:51 66.59073 66.72326 3560 ft 172 kts 166°
2026-04-23 13:51 66.57938 66.73136 4434 ft 165 kts 164°
2026-04-23 13:52 66.56852 66.73950 5292 ft 161 kts 163°
2026-04-23 13:52 66.55807 66.74929 6109 ft 160 kts 158°
2026-04-23 13:52 66.54799 66.76070 6912 ft 159 kts 154°
2026-04-23 13:52 66.53819 66.77318 7658 ft 157 kts 153°
2026-04-23 13:53 66.53497 66.77754 7903 ft 156 kts 152°
2026-04-23 13:53 66.49848 66.83950 10128 ft 188 kts 145°
2026-04-23 13:54 66.48927 66.85603 10718 ft 189 kts 144°
2026-04-23 13:54 66.47872 66.87579 11397 ft 189 kts 143°
2026-04-23 13:54 66.46809 66.89604 11911 ft 197 kts 142°
2026-04-23 13:54 66.45704 66.91664 12567 ft 200 kts 143°
2026-04-23 13:55 66.44692 66.93997 13141 ft 202 kts 122°
2026-04-23 13:55 66.43972 66.97223 13354 ft 227 kts 120°
2026-04-23 13:55 66.43431 66.99573 13419 ft 244 kts 120°